"Sample Date","Sample Time","Sample Value","Units","Flow Rate","Sample Interval","Number Channels","Micron Size 0","Counts/Channel 0","Micron Size 1","Counts/Channel 1","Micron Size 2","Counts/Channel 2","Micron Size 3","Counts/Channel 3","Micron Size 4","Counts/Channel 4","Micron Size 5","Counts/Channel 5","Micron Size 6","Counts/Channel 6","Micron Size 7","Counts/Channel 7","Micron Size 8","Counts/Channel 8","Micron Size 9","Counts/Channel 9","Micron Size 10","Counts/Channel 10","Micron Size 11","Counts/Channel 11","Micron Size 12","Counts/Channel 12","Micron Size 13","Counts/Channel 13","Micron Size 14","Counts/Channel 14","Micron Size 15","Counts/Channel 15","Micron Size 16","Counts/Channel 16","Micron Size 17","Counts/Channel 17","Micron Size 18","Counts/Channel 18","Micron Size 19","Counts/Channel 19","Micron Size 20","Counts/Channel 20","Micron Size 21","Counts/Channel 21","Micron Size 22","Counts/Channel 22","Micron Size 23","Counts/Channel 23","Micron Size 24","Counts/Channel 24","Micron Size 25","Counts/Channel 25","Micron Size 26","Counts/Channel 26","Micron Size 27","Counts/Channel 27","Micron Size 28","Counts/Channel 28","Micron Size 29","Counts/Channel 29","Micron Size 30","Counts/Channel 30","Micron Size 31","Counts/Channel 31"
"04/07/08","12:00:04",13774.000,"cc",28216.119,6.00,6,0.100,6276.000,0.200,2445.000,0.300,1928.000,0.500,2212.000,1.000,913.000,5.000,0
"04/07/08","12:00:10",13761.000,"cc",28231.315,6.00,6,0.100,6299.000,0.200,2426.000,0.300,1941.000,0.500,2228.000,1.000,867.000,5.000,0
"04/07/08","12:00:16",13843.000,"cc",28104.254,6.00,6,0.100,6339.000,0.200,2382.000,0.300,1964.000,0.500,2216.000,1.000,942.000,5.000,0
"04/07/08","12:00:22",14032.000,"cc",28367.543,6.00,6,0.100,6358.000,0.200,2405.000,0.300,2089.000,0.500,2282.000,1.000,898.000,5.000,0
"04/07/08","12:00:28",14883.000,"cc",28389.906,6.00,6,0.100,6744.000,0.200,2659.000,0.300,2141.000,0.500,2375.000,1.000,964.000,5.000,0
"04/07/08","12:00:34",15109.000,"cc",28479.354,6.00,6,0.100,6745.000,0.200,2656.000,0.300,2285.000,0.500,2470.000,1.000,953.000,5.000,0
"04/07/08","12:00:40",14744.000,"cc",28278.951,6.00,6,0.100,6659.000,0.200,2556.000,0.300,2119.000,0.500,2452.000,1.000,958.000,5.000,0
"04/07/08","12:00:46",14611.000,"cc",28268.424,6.00,6,0.100,6613.000,0.200,2639.000,0.300,2116.000,0.500,2382.000,1.000,861.000,5.000,0
"04/07/08","12:00:52",13495.000,"cc",28227.291,6.00,6,0.100,6227.000,0.200,2319.000,0.300,1895.000,0.500,2204.000,1.000,850.000,5.000,0
"04/07/08","12:00:58",13749.000,"cc",28433.930,6.00,6,0.100,6228.000,0.200,2425.000,0.300,2006.000,0.500,2233.000,1.000,857.000,5.000,0
"04/07/08","12:01:04",14079.000,"cc",28239.037,6.00,6,0.100,6408.000,0.200,2447.000,0.300,1989.000,0.500,2335.000,1.000,900.000,5.000,0
"04/07/08","12:01:10",13968.000,"cc",28228.826,6.00,6,0.100,6222.000,0.200,2468.000,0.300,2030.000,0.500,2339.000,1.000,909.000,5.000,0
"04/07/08","12:01:16",13759.000,"cc",28257.613,6.00,6,0.100,6253.000,0.200,2393.000,0.300,1974.000,0.500,2247.000,1.000,892.000,5.000,0
"04/07/08","12:01:22",13503.000,"cc",28388.932,6.00,6,0.100,6186.000,0.200,2379.000,0.300,1909.000,0.500,2147.000,1.000,882.000,5.000,0
"04/07/08","12:01:28",13895.000,"cc",28364.418,6.00,6,0.100,6305.000,0.200,2421.000,0.300,2009.000,0.500,2272.000,1.000,888.000,5.000,0
"04/07/08","12:01:34",13618.000,"cc",28309.984,6.00,6,0.100,6289.000,0.200,2353.000,0.300,1953.000,0.500,2146.000,1.000,877.000,5.000,0
"04/07/08","12:01:40",14176.000,"cc",28318.379,6.00,6,0.100,6359.000,0.200,2451.000,0.300,2060.000,0.500,2367.000,1.000,939.000,5.000,0
"04/07/08","12:01:46",14550.000,"cc",28315.473,6.00,6,0.100,6362.000,0.200,2548.000,0.300,2173.000,0.500,2487.000,1.000,980.000,5.000,0
"04/07/08","12:01:52",14483.000,"cc",28333.285,6.00,6,0.100,6628.000,0.200,2469.000,0.300,2118.000,0.500,2387.000,1.000,881.000,5.000,0
"04/07/08","12:01:58",14075.000,"cc",28160.836,6.00,6,0.100,6481.000,0.200,2459.000,0.300,1958.000,0.500,2272.000,1.000,905.000,5.000,0
"04/07/08","12:02:04",14121.000,"cc",28410.777,6.00,6,0.100,6499.000,0.200,2364.000,0.300,2095.000,0.500,2278.000,1.000,885.000,5.000,0
"04/07/08","12:02:10",13971.000,"cc",28246.557,6.00,6,0.100,6447.000,0.200,2440.000,0.300,2030.000,0.500,2212.000,1.000,842.000,5.000,0
"04/07/08","12:02:16",13193.000,"cc",28368.756,6.00,6,0.100,6092.000,0.200,2303.000,0.300,1866.000,0.500,2083.000,1.000,849.000,5.000,0
"04/07/08","12:02:22",12741.000,"cc",28433.158,6.00,6,0.100,5847.000,0.200,2211.000,0.300,1820.000,0.500,2051.000,1.000,812.000,5.000,0
"04/07/08","12:02:28",13367.000,"cc",28238.139,6.00,6,0.100,6209.000,0.200,2334.000,0.300,1791.000,0.500,2169.000,1.000,864.000,5.000,0
"04/07/08","12:02:34",14284.000,"cc",28290.190,6.00,6,0.100,6467.000,0.200,2460.000,0.300,2037.000,0.500,2407.000,1.000,913.000,5.000,0
"04/07/08","12:02:40",14182.000,"cc",28344.303,6.00,6,0.100,6346.000,0.200,2496.000,0.300,1979.000,0.500,2423.000,1.000,937.000,5.000,1.000
"04/07/08","12:02:46",13992.000,"cc",28246.361,6.00,6,0.100,6313.000,0.200,2438.000,0.300,2059.000,0.500,2297.000,1.000,885.000,5.000,0
"04/07/08","12:02:52",14986.000,"cc",28401.236,6.00,6,0.100,6694.000,0.200,2653.000,0.300,2222.000,0.500,2493.000,1.000,924.000,5.000,0
"04/07/08","12:02:58",14557.000,"cc",28135.926,6.00,6,0.100,6494.000,0.200,2619.000,0.300,2220.000,0.500,2334.000,1.000,890.000,5.000,0
"04/07/08","12:03:04",14973.000,"cc",28252.059,6.00,6,0.100,6599.000,0.200,2683.000,0.300,2292.000,0.500,2440.000,1.000,959.000,5.000,0
"04/07/08","12:03:10",14846.000,"cc",28233.688,6.00,6,0.100,6748.000,0.200,2712.000,0.300,2103.000,0.500,2432.000,1.000,851.000,5.000,0
"04/07/08","12:03:16",14364.000,"cc",28500.225,6.00,6,0.100,6590.000,0.200,2587.000,0.300,2043.000,0.500,2282.000,1.000,862.000,5.000,0
"04/07/08","12:03:22",13421.000,"cc",28386.736,6.00,6,0.100,6201.000,0.200,2239.000,0.300,1909.000,0.500,2200.000,1.000,872.000,5.000,0
"04/07/08","12:03:28",14110.000,"cc",28179.734,6.00,6,0.100,6502.000,0.200,2458.000,0.300,1993.000,0.500,2257.000,1.000,900.000,5.000,0
"04/07/08","12:03:34",14338.000,"cc",28354.606,6.00,6,0.100,6470.000,0.200,2565.000,0.300,2022.000,0.500,2373.000,1.000,908.000,5.000,0
"04/07/08","12:03:40",14610.000,"cc",28255.397,6.00,6,0.100,6668.000,0.200,2633.000,0.300,2056.000,0.500,2351.000,1.000,902.000,5.000,0
"04/07/08","12:03:46",14682.000,"cc",28338.609,6.00,6,0.100,6690.000,0.200,2613.000,0.300,2056.000,0.500,2355.000,1.000,968.000,5.000,0
"04/07/08","12:03:52",14178.000,"cc",28298.539,6.00,6,0.100,6336.000,0.200,2464.000,0.300,2156.000,0.500,2347.000,1.000,875.000,5.000,0
"04/07/08","12:03:58",13902.000,"cc",28313.152,6.00,6,0.100,6341.000,0.200,2349.000,0.300,2006.000,0.500,2306.000,1.000,900.000,5.000,0
"04/07/08","12:04:04",13694.000,"cc",28436.111,6.00,6,0.100,6184.000,0.200,2400.000,0.300,1935.000,0.500,2350.000,1.000,825.000,5.000,0
"04/07/08","12:04:10",14576.000,"cc",28369.148,6.00,6,0.100,6582.000,0.200,2616.000,0.300,2040.000,0.500,2431.000,1.000,907.000,5.000,0
"04/07/08","12:04:16",14398.000,"cc",28295.650,6.00,6,0.100,6435.000,0.200,2502.000,0.300,2083.000,0.500,2392.000,1.000,986.000,5.000,0
"04/07/08","12:04:22",15958.000,"cc",28185.154,6.00,6,0.100,7107.000,0.200,2815.000,0.300,2329.000,0.500,2622.000,1.000,1085.000,5.000,0
"04/07/08","12:04:28",14657.000,"cc",28237.041,6.00,6,0.100,6585.000,0.200,2587.000,0.300,2150.000,0.500,2366.000,1.000,969.000,5.000,0
"04/07/08","12:04:34",14935.000,"cc",28226.625,6.00,6,0.100,6819.000,0.200,2628.000,0.300,2144.000,0.500,2446.000,1.000,898.000,5.000,0
"04/07/08","12:04:40",14521.000,"cc",28386.561,6.00,6,0.100,6461.000,0.200,2590.000,0.300,2083.000,0.500,2475.000,1.000,912.000,5.000,0
"04/07/08","12:04:46",13313.000,"cc",28475.945,6.00,6,0.100,6094.000,0.200,2277.000,0.300,1865.000,0.500,2172.000,1.000,905.000,5.000,0
"04/07/08","12:04:52",13102.000,"cc",28309.332,6.00,6,0.100,5975.000,0.200,2274.000,0.300,1863.000,0.500,2104.000,1.000,886.000,5.000,0
"04/07/08","12:04:58",12919.000,"cc",28342.148,6.00,6,0.100,5875.000,0.200,2246.000,0.300,1803.000,0.500,2165.000,1.000,830.000,5.000,0
"04/07/08","12:05:04",13695.000,"cc",28335.570,6.00,6,0.100,6288.000,0.200,2276.000,0.300,1877.000,0.500,2308.000,1.000,946.000,5.000,0
"04/07/08","12:05:10",14298.000,"cc",28277.496,6.00,6,0.100,6312.000,0.200,2478.000,0.300,2155.000,0.500,2353.000,1.000,1000.000,5.000,0
"04/07/08","12:05:16",14281.000,"cc",28311.006,6.00,6,0.100,6581.000,0.200,2428.000,0.300,1986.000,0.500,2392.000,1.000,894.000,5.000,0
"04/07/08","12:05:22",13812.000,"cc",28351.805,6.00,6,0.100,6247.000,0.200,2405.000,0.300,2009.000,0.500,2282.000,1.000,869.000,5.000,0
"04/07/08","12:05:28",13911.000,"cc",28275.516,6.00,6,0.100,6366.000,0.200,2332.000,0.300,1985.000,0.500,2332.000,1.000,895.000,5.000,1.000
"04/07/08","12:05:34",14543.000,"cc",28285.961,6.00,6,0.100,6619.000,0.200,2558.000,0.300,2031.000,0.500,2381.000,1.000,954.000,5.000,0
"04/07/08","12:05:40",13999.000,"cc",28399.975,6.00,6,0.100,6195.000,0.200,2390.000,0.300,2090.000,0.500,2396.000,1.000,928.000,5.000,0
"04/07/08","12:05:46",13422.000,"cc",28343.885,6.00,6,0.100,6180.000,0.200,2310.000,0.300,1897.000,0.500,2155.000,1.000,880.000,5.000,0
"04/07/08","12:05:52",13648.000,"cc",28302.119,6.00,6,0.100,6138.000,0.200,2397.000,0.300,1918.000,0.500,2339.000,1.000,856.000,5.000,0
"04/07/08","12:05:58",13933.000,"cc",28406.777,6.00,6,0.100,6225.000,0.200,2443.000,0.300,2037.000,0.500,2319.000,1.000,909.000,5.000,0
"04/07/08","12:06:04",14357.000,"cc",28076.459,6.00,6,0.100,6429.000,0.200,2577.000,0.300,2145.000,0.500,2268.000,1.000,937.000,5.000,1.000
"04/07/08","12:06:10",14436.000,"cc",28300.879,6.00,6,0.100,6397.000,0.200,2519.000,0.300,2109.000,0.500,2486.000,1.000,925.000,5.000,0
"04/07/08","12:06:16",14626.000,"cc",28316.422,6.00,6,0.100,6550.000,0.200,2614.000,0.300,2070.000,0.500,2424.000,1.000,968.000,5.000,0
"04/07/08","12:06:22",14351.000,"cc",28457.484,6.00,6,0.100,6515.000,0.200,2494.000,0.300,2070.000,0.500,2350.000,1.000,922.000,5.000,0
"04/07/08","12:06:28",13974.000,"cc",28167.221,6.00,6,0.100,6439.000,0.200,2354.000,0.300,2010.000,0.500,2243.000,1.000,928.000,5.000,0
"04/07/08","12:06:34",13399.000,"cc",28266.533,6.00,6,0.100,6115.000,0.200,2302.000,0.300,1903.000,0.500,2237.000,1.000,842.000,5.000,0
"04/07/08","12:06:40",13746.000,"cc",28283.975,6.00,6,0.100,6147.000,0.200,2488.000,0.300,2027.000,0.500,2191.000,1.000,893.000,5.000,0
"04/07/08","12:06:46",13888.000,"cc",28395.088,6.00,6,0.100,6187.000,0.200,2377.000,0.300,2029.000,0.500,2359.000,1.000,936.000,5.000,0
"04/07/08","12:06:52",14230.000,"cc",28323.941,6.00,6,0.100,6430.000,0.200,2532.000,0.300,1994.000,0.500,2365.000,1.000,909.000,5.000,0
"04/07/08","12:06:58",14451.000,"cc",28264.316,6.00,6,0.100,6435.000,0.200,2467.000,0.300,2192.000,0.500,2372.000,1.000,985.000,5.000,0
"04/07/08","12:07:04",14181.000,"cc",28325.184,6.00,6,0.100,6396.000,0.200,2532.000,0.300,1945.000,0.500,2357.000,1.000,951.000,5.000,0
"04/07/08","12:07:10",13515.000,"cc",28371.256,6.00,6,0.100,6054.000,0.200,2385.000,0.300,1968.000,0.500,2237.000,1.000,871.000,5.000,0
"04/07/08","12:07:16",14090.000,"cc",28319.568,6.00,6,0.100,6300.000,0.200,2393.000,0.300,2065.000,0.500,2399.000,1.000,933.000,5.000,0
"04/07/08","12:07:22",14211.000,"cc",28316.400,6.00,6,0.100,6407.000,0.200,2434.000,0.300,2019.000,0.500,2362.000,1.000,989.000,5.000,0
"04/07/08","12:07:28",14600.000,"cc",28208.861,6.00,6,0.100,6419.000,0.200,2581.000,0.300,2124.000,0.500,2518.000,1.000,958.000,5.000,0
"04/07/08","12:07:34",15110.000,"cc",28306.705,6.00,6,0.100,6715.000,0.200,2632.000,0.300,2198.000,0.500,2596.000,1.000,969.000,5.000,0
"04/07/08","12:07:40",15291.000,"cc",28360.690,6.00,6,0.100,6833.000,0.200,2761.000,0.300,2179.000,0.500,2543.000,1.000,975.000,5.000,0
"04/07/08","12:07:46",14085.000,"cc",28336.670,6.00,6,0.100,6312.000,0.200,2451.000,0.300,1988.000,0.500,2417.000,1.000,916.000,5.000,1.000
"04/07/08","12:07:52",14384.000,"cc",28301.328,6.00,6,0.100,6485.000,0.200,2595.000,0.300,2014.000,0.500,2327.000,1.000,962.000,5.000,1.000
"04/07/08","12:07:58",14020.000,"cc",28269.535,6.00,6,0.100,6416.000,0.200,2425.000,0.300,2017.000,0.500,2227.000,1.000,935.000,5.000,0
"04/07/08","12:08:04",13903.000,"cc",28222.322,6.00,6,0.100,6214.000,0.200,2430.000,0.300,1928.000,0.500,2400.000,1.000,931.000,5.000,0
"04/07/08","12:08:10",15883.000,"cc",28197.641,6.00,6,0.100,6980.000,0.200,2834.000,0.300,2358.000,0.500,2673.000,1.000,1038.000,5.000,0
"04/07/08","12:08:16",14359.000,"cc",28345.377,6.00,6,0.100,6474.000,0.200,2535.000,0.300,2082.000,0.500,2337.000,1.000,931.000,5.000,0
"04/07/08","12:08:22",14033.000,"cc",28286.465,6.00,6,0.100,6303.000,0.200,2404.000,0.300,2072.000,0.500,2361.000,1.000,893.000,5.000,0
"04/07/08","12:08:28",14540.000,"cc",28323.012,6.00,6,0.100,6569.000,0.200,2541.000,0.300,2122.000,0.500,2369.000,1.000,939.000,5.000,0
"04/07/08","12:08:34",13507.000,"cc",28358.168,6.00,6,0.100,5984.000,0.200,2378.000,0.300,1937.000,0.500,2320.000,1.000,888.000,5.000,0
"04/07/08","12:08:40",13776.000,"cc",28307.496,6.00,6,0.100,6222.000,0.200,2445.000,0.300,1909.000,0.500,2293.000,1.000,907.000,5.000,0
"04/07/08","12:08:46",14327.000,"cc",28411.719,6.00,6,0.100,6411.000,0.200,2530.000,0.300,2017.000,0.500,2418.000,1.000,951.000,5.000,0
"04/07/08","12:08:52",14002.000,"cc",28310.723,6.00,6,0.100,6308.000,0.200,2495.000,0.300,1953.000,0.500,2352.000,1.000,894.000,5.000,0
"04/07/08","12:08:58",13913.000,"cc",28304.570,6.00,6,0.100,6321.000,0.200,2360.000,0.300,1951.000,0.500,2337.000,1.000,944.000,5.000,0
"04/07/08","12:09:04",15119.000,"cc",28270.268,6.00,6,0.100,6800.000,0.200,2654.000,0.300,2195.000,0.500,2494.000,1.000,976.000,5.000,0
"04/07/08","12:09:10",14135.000,"cc",28464.518,6.00,6,0.100,6315.000,0.200,2541.000,0.300,2081.000,0.500,2320.000,1.000,878.000,5.000,0
"04/07/08","12:09:16",13223.000,"cc",28265.131,6.00,6,0.100,5987.000,0.200,2218.000,0.300,1938.000,0.500,2221.000,1.000,859.000,5.000,0
"04/07/08","12:09:22",14125.000,"cc",28166.981,6.00,6,0.100,6354.000,0.200,2441.000,0.300,2059.000,0.500,2345.000,1.000,926.000,5.000,0
"04/07/08","12:09:28",14245.000,"cc",28294.594,6.00,6,0.100,6470.000,0.200,2461.000,0.300,2067.000,0.500,2335.000,1.000,912.000,5.000,0
"04/07/08","12:09:34",14180.000,"cc",28398.510,6.00,6,0.100,6405.000,0.200,2460.000,0.300,2047.000,0.500,2323.000,1.000,945.000,5.000,0
"04/07/08","12:09:40",13825.000,"cc",28399.596,6.00,6,0.100,6212.000,0.200,2419.000,0.300,1974.000,0.500,2288.000,1.000,932.000,5.000,0
"04/07/08","12:09:46",13737.000,"cc",28338.066,6.00,6,0.100,6178.000,0.200,2381.000,0.300,1977.000,0.500,2244.000,1.000,956.000,5.000,1.000
"04/07/08","12:09:52",13282.000,"cc",28225.752,6.00,6,0.100,5949.000,0.200,2346.000,0.300,1892.000,0.500,2233.000,1.000,861.000,5.000,1.000
"04/07/08","12:09:58",13850.000,"cc",28233.084,6.00,6,0.100,6222.000,0.200,2412.000,0.300,2038.000,0.500,2309.000,1.000,869.000,5.000,0
"04/07/08","12:10:04",14331.000,"cc",28301.990,6.00,6,0.100,6338.000,0.200,2522.000,0.300,2125.000,0.500,2409.000,1.000,937.000,5.000,0
"04/07/08","12:10:10",13706.000,"cc",28409.418,6.00,6,0.100,6120.000,0.200,2361.000,0.300,2042.000,0.500,2311.000,1.000,872.000,5.000,0
"04/07/08","12:10:16",13009.000,"cc",28252.680,6.00,6,0.100,5870.000,0.200,2281.000,0.300,1896.000,0.500,2113.000,1.000,848.000,5.000,1.000
"04/07/08","12:10:22",13496.000,"cc",28259.178,6.00,6,0.100,6174.000,0.200,2371.000,0.300,1893.000,0.500,2213.000,1.000,845.000,5.000,0
"04/07/08","12:10:28",14053.000,"cc",28353.180,6.00,6,0.100,6301.000,0.200,2564.000,0.300,1975.000,0.500,2256.000,1.000,957.000,5.000,0
"04/07/08","12:10:34",14661.000,"cc",28334.277,6.00,6,0.100,6576.000,0.200,2507.000,0.300,2200.000,0.500,2410.000,1.000,968.000,5.000,0
"04/07/08","12:10:40",14463.000,"cc",28344.186,6.00,6,0.100,6471.000,0.200,2564.000,0.300,2079.000,0.500,2408.000,1.000,940.000,5.000,1.000
"04/07/08","12:10:46",15097.000,"cc",28264.676,6.00,6,0.100,6738.000,0.200,2643.000,0.300,2233.000,0.500,2485.000,1.000,998.000,5.000,0
"04/07/08","12:10:52",16094.000,"cc",28334.645,6.00,6,0.100,7285.000,0.200,2837.000,0.300,2308.000,0.500,2592.000,1.000,1072.000,5.000,0
"04/07/08","12:10:58",14342.000,"cc",28279.842,6.00,6,0.100,6540.000,0.200,2585.000,0.300,2020.000,0.500,2274.000,1.000,923.000,5.000,0
"04/07/08","12:11:04",14832.000,"cc",28329.848,6.00,6,0.100,6733.000,0.200,2658.000,0.300,2114.000,0.500,2399.000,1.000,928.000,5.000,0
"04/07/08","12:11:10",15544.000,"cc",28312.106,6.00,6,0.100,7063.000,0.200,2751.000,0.300,2215.000,0.500,2548.000,1.000,967.000,5.000,0
"04/07/08","12:11:16",14621.000,"cc",28310.574,6.00,6,0.100,6657.000,0.200,2473.000,0.300,2100.000,0.500,2448.000,1.000,943.000,5.000,0
"04/07/08","12:11:22",14338.000,"cc",28343.135,6.00,6,0.100,6349.000,0.200,2544.000,0.300,2111.000,0.500,2396.000,1.000,937.000,5.000,1.000
"04/07/08","12:11:28",13914.000,"cc",28397.670,6.00,6,0.100,6255.000,0.200,2415.000,0.300,2087.000,0.500,2274.000,1.000,883.000,5.000,0
"04/07/08","12:11:34",13555.000,"cc",28402.986,6.00,6,0.100,6185.000,0.200,2317.000,0.300,1955.000,0.500,2244.000,1.000,854.000,5.000,0
"04/07/08","12:11:40",13658.000,"cc",28230.887,6.00,6,0.100,6226.000,0.200,2418.000,0.300,1940.000,0.500,2190.000,1.000,884.000,5.000,0
"04/07/08","12:11:46",14070.000,"cc",28331.773,6.00,6,0.100,6383.000,0.200,2466.000,0.300,2022.000,0.500,2281.000,1.000,918.000,5.000,0
"04/07/08","12:11:52",14500.000,"cc",28348.906,6.00,6,0.100,6553.000,0.200,2526.000,0.300,2108.000,0.500,2389.000,1.000,924.000,5.000,0
"04/07/08","12:11:58",14607.000,"cc",28314.897,6.00,6,0.100,6492.000,0.200,2596.000,0.300,2140.000,0.500,2421.000,1.000,958.000,5.000,0
"04/07/08","12:12:04",14325.000,"cc",28342.545,6.00,6,0.100,6403.000,0.200,2451.000,0.300,2101.000,0.500,2450.000,1.000,920.000,5.000,0
"04/07/08","12:12:10",13479.000,"cc",28223.609,6.00,6,0.100,6168.000,0.200,2319.000,0.300,1966.000,0.500,2147.000,1.000,879.000,5.000,0
"04/07/08","12:12:16",13527.000,"cc",28371.947,6.00,6,0.100,6256.000,0.200,2255.000,0.300,1930.000,0.500,2220.000,1.000,866.000,5.000,0
"04/07/08","12:12:22",12873.000,"cc",28424.307,6.00,6,0.100,5953.000,0.200,2170.000,0.300,1819.000,0.500,2058.000,1.000,873.000,5.000,0
"04/07/08","12:12:28",12439.000,"cc",28205.318,6.00,6,0.100,5691.000,0.200,2127.000,0.300,1719.000,0.500,2021.000,1.000,881.000,5.000,0
"04/07/08","12:12:34",12810.000,"cc",28340.359,6.00,6,0.100,5823.000,0.200,2210.000,0.300,1857.000,0.500,2099.000,1.000,821.000,5.000,0
"04/07/08","12:12:40",12898.000,"cc",28270.473,6.00,6,0.100,5825.000,0.200,2315.000,0.300,1848.000,0.500,2054.000,1.000,856.000,5.000,0
"04/07/08","12:12:46",12974.000,"cc",28422.897,6.00,6,0.100,5884.000,0.200,2170.000,0.300,1872.000,0.500,2155.000,1.000,893.000,5.000,0
"04/07/08","12:12:52",13183.000,"cc",28246.764,6.00,6,0.100,6071.000,0.200,2213.000,0.300,1861.000,0.500,2143.000,1.000,895.000,5.000,0
"04/07/08","12:12:58",13493.000,"cc",28382.783,6.00,6,0.100,6247.000,0.200,2306.000,0.300,1858.000,0.500,2218.000,1.000,864.000,5.000,0
"04/07/08","12:13:04",13480.000,"cc",28242.227,6.00,6,0.100,6033.000,0.200,2381.000,0.300,1919.000,0.500,2260.000,1.000,887.000,5.000,0
"04/07/08","12:13:10",13085.000,"cc",28321.147,6.00,6,0.100,5934.000,0.200,2273.000,0.300,1831.000,0.500,2198.000,1.000,849.000,5.000,0
"04/07/08","12:13:16",13334.000,"cc",28241.719,6.00,6,0.100,6092.000,0.200,2195.000,0.300,1882.000,0.500,2280.000,1.000,884.000,5.000,1.000
"04/07/08","12:13:22",13421.000,"cc",28420.992,6.00,6,0.100,6041.000,0.200,2337.000,0.300,1872.000,0.500,2276.000,1.000,895.000,5.000,0
"04/07/08","12:13:28",13977.000,"cc",28235.506,6.00,6,0.100,6258.000,0.200,2432.000,0.300,1967.000,0.500,2340.000,1.000,980.000,5.000,0
"04/07/08","12:13:34",13100.000,"cc",28210.955,6.00,6,0.100,5902.000,0.200,2311.000,0.300,1849.000,0.500,2167.000,1.000,871.000,5.000,0
"04/07/08","12:13:40",12381.000,"cc",28496.523,6.00,6,0.100,5690.000,0.200,2107.000,0.300,1765.000,0.500,2005.000,1.000,813.000,5.000,1.000
"04/07/08","12:13:46",11751.000,"cc",28288.006,6.00,6,0.100,5524.000,0.200,1963.000,0.300,1631.000,0.500,1891.000,1.000,742.000,5.000,0
"04/07/08","12:13:52",11485.000,"cc",28318.854,6.00,6,0.100,5404.000,0.200,1870.000,0.300,1659.000,0.500,1787.000,1.000,765.000,5.000,0
"04/07/08","12:13:58",11531.000,"cc",28148.065,6.00,6,0.100,5361.000,0.200,2013.000,0.300,1589.000,0.500,1839.000,1.000,729.000,5.000,0
"04/07/08","12:14:04",12299.000,"cc",28475.674,6.00,6,0.100,5563.000,0.200,2091.000,0.300,1801.000,0.500,2009.000,1.000,835.000,5.000,0
"04/07/08","12:14:10",12059.000,"cc",28208.953,6.00,6,0.100,5525.000,0.200,1991.000,0.300,1744.000,0.500,1999.000,1.000,800.000,5.000,0
"04/07/08","12:14:16",12352.000,"cc",28336.588,6.00,6,0.100,5685.000,0.200,2098.000,0.300,1665.000,0.500,2044.000,1.000,860.000,5.000,0
"04/07/08","12:14:22",12031.000,"cc",28369.537,6.00,6,0.100,5519.000,0.200,2061.000,0.300,1703.000,0.500,1982.000,1.000,766.000,5.000,0
"04/07/08","12:14:28",11138.000,"cc",28343.359,6.00,6,0.100,5165.000,0.200,1917.000,0.300,1483.000,0.500,1847.000,1.000,726.000,5.000,0
"04/07/08","12:14:34",12108.000,"cc",28343.893,6.00,6,0.100,5650.000,0.200,2042.000,0.300,1684.000,0.500,1947.000,1.000,785.000,5.000,0
"04/07/08","12:14:40",11895.000,"cc",28281.592,6.00,6,0.100,5480.000,0.200,2032.000,0.300,1681.000,0.500,1931.000,1.000,771.000,5.000,0
"04/07/08","12:14:46",12866.000,"cc",28338.219,6.00,6,0.100,5940.000,0.200,2191.000,0.300,1782.000,0.500,2072.000,1.000,880.000,5.000,1.000
"04/07/08","12:14:52",13074.000,"cc",28347.791,6.00,6,0.100,5930.000,0.200,2266.000,0.300,1871.000,0.500,2117.000,1.000,890.000,5.000,0
"04/07/08","12:14:58",13079.000,"cc",28319.088,6.00,6,0.100,6062.000,0.200,2191.000,0.300,1839.000,0.500,2155.000,1.000,832.000,5.000,0
"04/07/08","12:15:04",13559.000,"cc",28346.859,6.00,6,0.100,6138.000,0.200,2320.000,0.300,1954.000,0.500,2261.000,1.000,886.000,5.000,0
"04/07/08","12:15:10",14875.000,"cc",28283.572,6.00,6,0.100,6859.000,0.200,2644.000,0.300,2122.000,0.500,2321.000,1.000,929.000,5.000,0
"04/07/08","12:15:16",12673.000,"cc",28230.209,6.00,6,0.100,5718.000,0.200,2185.000,0.300,1829.000,0.500,2088.000,1.000,853.000,5.000,0
"04/07/08","12:15:22",12364.000,"cc",28438.805,6.00,6,0.100,5647.000,0.200,2127.000,0.300,1762.000,0.500,2057.000,1.000,771.000,5.000,0
"04/07/08","12:15:28",11977.000,"cc",28450.795,6.00,6,0.100,5525.000,0.200,2053.000,0.300,1726.000,0.500,1871.000,1.000,802.000,5.000,0
"04/07/08","12:15:34",12835.000,"cc",28281.225,6.00,6,0.100,5858.000,0.200,2112.000,0.300,1878.000,0.500,2104.000,1.000,883.000,5.000,0
"04/07/08","12:15:40",12400.000,"cc",28230.963,6.00,6,0.100,5691.000,0.200,2145.000,0.300,1752.000,0.500,1981.000,1.000,830.000,5.000,1.000
"04/07/08","12:15:46",12815.000,"cc",28255.443,6.00,6,0.100,5908.000,0.200,2177.000,0.300,1800.000,0.500,2062.000,1.000,868.000,5.000,0
"04/07/08","12:15:52",12939.000,"cc",28107.115,6.00,6,0.100,5863.000,0.200,2276.000,0.300,1778.000,0.500,2113.000,1.000,909.000,5.000,0
"04/07/08","12:15:58",12928.000,"cc",28436.285,6.00,6,0.100,5957.000,0.200,2240.000,0.300,1841.000,0.500,2082.000,1.000,808.000,5.000,0
"04/07/08","12:16:04",11968.000,"cc",28363.281,6.00,6,0.100,5439.000,0.200,2099.000,0.300,1691.000,0.500,1938.000,1.000,801.000,5.000,0
"04/07/08","12:16:10",12636.000,"cc",28364.861,6.00,6,0.100,5681.000,0.200,2115.000,0.300,1872.000,0.500,2113.000,1.000,855.000,5.000,0
"04/07/08","12:16:16",12436.000,"cc",28298.041,6.00,6,0.100,5731.000,0.200,2143.000,0.300,1702.000,0.500,2032.000,1.000,828.000,5.000,0
"04/07/08","12:16:22",12515.000,"cc",28273.369,6.00,6,0.100,5759.000,0.200,2083.000,0.300,1736.000,0.500,2067.000,1.000,870.000,5.000,0
"04/07/08","12:16:28",12959.000,"cc",28340.791,6.00,6,0.100,5887.000,0.200,2240.000,0.300,1892.000,0.500,2094.000,1.000,846.000,5.000,0